EYESAT A (AO-27) (22825 NORAD) Tracking and Keplerian Element Data

This shows tracking and keplerian element data for the satellite.

Feedback or suggestion? Click here.




ElementValue
Catalog22825
NameEYESAT A (AO-27)
Epoch Orbit61942
Epoch Day286.76190661
Epoch Year2024
RAAN340.6911
Inclination98.7748
Eccentricity0.000953
Argument of Perigee95.1572
Mean Anonmoly265.0698
Mean Motion14.30615588
Decay Rate7.63E-06
L11 22825U 93061C 24286.76190661 .00000763 00000+0 30930-3 0 9999
L22 22825 98.7748 340.6911 0009530 95.1572 265.0698 14.30615588619423



Live tracking and technical data element details for EYESAT A (AO-27) (NORAD 22825). EYESAT A (AO-27) can be tracked NOW for your location showing map with azimuth and elevation plus other details from your city location.







IsCatalogInMostPopularTable: catalog: 22825, numindb: 500
Update: records affected: 1



GetName: 22825 EYESAT A (AO-27)

Hit Count: updated at: Thu, 23 Jan 2025 16:15:15 GMT